timestamp,surface_pressure_avg,surface_temp_avg,battery_voltage,lat,long
2018-09-19 00:00:00+00:00,249.7547,14.59,12.81,47.84626,-54.09684
2018-09-19 00:10:00+00:00,250.0747,14.68,12.73,47.84626,-54.09684
2018-09-19 00:20:00+00:00,244.283,14.7,12.81,47.84626,-54.09684
2018-09-19 00:30:00+00:00,245.468,14.6,12.81,47.84626,-54.09684
2018-09-19 00:40:00+00:00,247.6648,14.66,12.89,47.84626,-54.09684
2018-09-19 00:50:00+00:00,241.1698,14.5,12.89,47.84626,-54.09684
2018-09-19 01:00:00+00:00,237.9298,14.49,12.81,47.84626,-54.09684
2018-09-19 01:10:00+00:00,244.2264,14.6,12.73,47.84626,-54.09684
2018-09-19 01:20:00+00:00,244.2315,14.6,12.81,47.84626,-54.09684
2018-09-19 01:30:00+00:00,233.8981,14.6,12.81,47.84626,-54.09684
2018-09-19 01:40:00+00:00,229.6581,14.4,12.89,47.84626,-54.09684
2018-09-19 01:50:00+00:00,241.0464,14.9,12.89,47.84626,-54.09684
2018-09-19 02:00:00+00:00,245.2764,14.56,12.81,47.84626,-54.09684
2018-09-19 02:10:00+00:00,240.4314,14.3,12.73,47.84626,-54.09684
2018-09-19 02:20:00+00:00,237.2631,14.3,12.81,47.84626,-54.09684
2018-09-19 02:30:00+00:00,246.3114,14.43,12.81,47.84626,-54.09684
2018-09-19 02:40:00+00:00,252.6981,14.55,12.89,47.84626,-54.09684
2018-09-19 02:50:00+00:00,253.3181,14.96,12.89,47.84626,-54.09684
2018-09-19 03:00:00+00:00,254.1197,15.14,12.81,47.84626,-54.09684
2018-09-19 03:10:00+00:00,257.3897,15.19,12.73,47.84626,-54.09684
2018-09-19 03:20:00+00:00,257.8647,15.2,12.81,47.84626,-54.09684
2018-09-19 03:30:00+00:00,253.9731,15.2,12.81,47.84626,-54.09684
2018-09-19 03:40:00+00:00,259.7831,15.19,12.89,47.84626,-54.09684
2018-09-19 03:50:00+00:00,266.9131,15.1,12.89,47.84626,-54.09684
2018-09-19 04:00:00+00:00,265.2831,15.1,12.81,47.84626,-54.09684
2018-09-19 04:10:00+00:00,263.2114,15.0,12.73,47.84626,-54.09684
2018-09-19 04:20:00+00:00,273.9431,15.0,12.81,47.84626,-54.09684
2018-09-19 04:30:00+00:00,283.4598,15.03,12.81,47.84626,-54.09684
2018-09-19 04:40:00+00:00,280.2497,14.86,12.89,47.84626,-54.09684
2018-09-19 04:50:00+00:00,273.7664,14.4,12.89,47.84626,-54.09684
2018-09-19 05:00:00+00:00,282.9581,14.81,12.81,47.84626,-54.09684
2018-09-19 05:10:00+00:00,293.1647,15.0,12.73,47.84626,-54.09684
2018-09-19 05:20:00+00:00,290.8947,14.88,12.81,47.84626,-54.09684
2018-09-19 05:30:00+00:00,284.3747,14.46,12.81,47.84626,-54.09684
2018-09-19 05:40:00+00:00,290.2147,14.57,12.89,47.84626,-54.09684
2018-09-19 05:50:00+00:00,295.9898,14.6,12.89,47.84626,-54.09684
2018-09-19 06:00:00+00:00,293.1213,14.5,12.81,47.84626,-54.09684
2018-09-19 06:10:00+00:00,296.298,14.4,12.73,47.84626,-54.09684
2018-09-19 06:20:00+00:00,307.5314,14.4,12.81,47.84626,-54.09684
2018-09-19 06:30:00+00:00,308.1346,14.41,12.81,47.84626,-54.09684
2018-09-19 06:40:00+00:00,303.6946,14.4,12.89,47.84626,-54.09684
2018-09-19 06:50:00+00:00,312.1447,14.4,12.89,47.84626,-54.09684
2018-09-19 07:00:00+00:00,321.8564,14.4,12.81,47.84626,-54.09684
2018-09-19 07:10:00+00:00,317.3264,14.44,12.73,47.84626,-54.09684
2018-09-19 07:20:00+00:00,314.0731,14.45,12.81,47.84626,-54.09684
2018-09-19 07:30:00+00:00,320.5845,14.45,12.81,47.84626,-54.09684
2018-09-19 07:40:00+00:00,318.3563,14.5,12.89,47.84626,-54.09684
2018-09-19 07:50:00+00:00,314.8047,14.5,12.89,47.84626,-54.09684
2018-09-19 08:00:00+00:00,316.4479,14.5,12.81,47.84626,-54.09684
2018-09-19 08:10:00+00:00,317.7446,14.5,12.73,47.84626,-54.09684
2018-09-19 08:20:00+00:00,311.6998,14.56,12.81,47.84626,-54.09684
2018-09-19 08:30:00+00:00,307.483,14.53,12.81,47.84626,-54.09684
2018-09-19 08:40:00+00:00,308.8079,14.55,12.89,47.84626,-54.09684
2018-09-19 08:50:00+00:00,306.3013,14.59,12.89,47.84626,-54.09684
2018-09-19 09:00:00+00:00,299.0264,14.56,12.81,47.84626,-54.09684
2018-09-19 09:10:00+00:00,300.3047,14.53,12.73,47.84626,-54.09684
2018-09-19 09:20:00+00:00,300.3464,14.56,12.81,47.84626,-54.09684
2018-09-19 09:30:00+00:00,293.9597,14.5,12.81,47.84626,-54.09684
2018-09-19 09:40:00+00:00,291.6798,14.5,12.89,47.84626,-54.09684
2018-09-19 09:50:00+00:00,294.0013,14.5,12.89,47.84626,-54.09684
2018-09-19 10:00:00+00:00,285.978,14.5,12.89,47.84626,-54.09684
2018-09-19 10:10:00+00:00,273.5247,14.4,13.21,47.84626,-54.09684
2018-09-19 10:20:00+00:00,271.0247,14.29,13.6,47.84626,-54.09684
2018-09-19 10:30:00+00:00,267.5397,14.2,13.84,47.84626,-54.09684
2018-09-19 10:40:00+00:00,260.1181,14.2,14.8,47.84626,-54.09684
2018-09-19 10:50:00+00:00,257.3564,14.1,15.67,47.84626,-54.09684
2018-09-19 11:00:00+00:00,261.3198,14.1,15.75,47.84626,-54.09684
2018-09-19 11:10:00+00:00,258.4981,14.17,15.99,47.84626,-54.09684
2018-09-19 11:20:00+00:00,252.348,14.1,16.31,47.84626,-54.09684
2018-09-19 11:30:00+00:00,249.5447,14.1,16.39,47.84626,-54.09684
2018-09-19 11:40:00+00:00,254.3364,14.1,16.39,47.84626,-54.09684
2018-09-19 11:50:00+00:00,250.6798,14.15,16.39,47.84626,-54.09684
2018-09-19 12:00:00+00:00,242.3665,14.09,16.07,47.84626,-54.09684
2018-09-19 12:10:00+00:00,241.0064,14.1,15.51,47.84626,-54.09684
2018-09-19 12:20:00+00:00,244.3148,14.12,16.31,47.84626,-54.09684
2018-09-19 12:30:00+00:00,240.1947,14.19,14.96,47.84626,-54.09684
2018-09-19 12:40:00+00:00,229.8997,14.1,14.8,47.84626,-54.09684
2018-09-19 12:50:00+00:00,230.7281,14.1,14.8,47.84626,-54.09684
2018-09-19 13:00:00+00:00,238.2747,14.1,14.96,47.84626,-54.09684
2018-09-19 13:10:00+00:00,238.4614,14.1,14.48,47.84626,-54.09684
2018-09-19 13:20:00+00:00,238.7114,14.11,14.64,47.84626,-54.09684
2018-09-19 13:30:00+00:00,239.0748,14.2,14.64,47.84626,-54.09684
2018-09-19 13:40:00+00:00,234.3398,14.25,16.47,47.84626,-54.09684
2018-09-19 13:50:00+00:00,227.8848,14.3,14.64,47.84626,-54.09684
2018-09-19 14:00:00+00:00,227.9898,14.29,14.72,47.84626,-54.09684
2018-09-19 14:10:00+00:00,233.8581,14.23,14.48,47.84626,-54.09684
2018-09-19 14:20:00+00:00,238.8564,14.28,14.72,47.84626,-54.09684
2018-09-19 14:30:00+00:00,240.4915,14.3,14.56,47.84626,-54.09684
2018-09-19 14:40:00+00:00,245.9997,14.33,15.11,47.84626,-54.09684
2018-09-19 14:50:00+00:00,253.6364,14.4,14.88,47.84626,-54.09684
2018-09-19 15:00:00+00:00,254.5414,14.4,14.72,47.84626,-54.09684
2018-09-19 15:10:00+00:00,256.9147,14.2,14.72,47.84626,-54.09684
2018-09-19 15:20:00+00:00,263.8447,14.17,14.64,47.84626,-54.09684
2018-09-19 15:30:00+00:00,266.578,14.17,14.48,47.84626,-54.09684
2018-09-19 15:40:00+00:00,268.203,14.16,14.72,47.84626,-54.09684
2018-09-19 15:50:00+00:00,274.8931,14.1,14.56,47.84626,-54.09684
2018-09-19 16:00:00+00:00,281.7947,14.17,14.48,47.84626,-54.09684
2018-09-19 16:10:00+00:00,277.758,14.17,14.32,47.84626,-54.09684
2018-09-19 16:20:00+00:00,277.4564,14.19,14.56,47.84626,-54.09684
2018-09-19 16:30:00+00:00,287.668,14.2,14.4,47.84626,-54.09684
2018-09-19 16:40:00+00:00,291.2263,14.2,14.48,47.84626,-54.09684
2018-09-19 16:50:00+00:00,287.7231,14.2,14.4,47.84626,-54.09684
2018-09-19 17:00:00+00:00,292.3913,14.22,14.24,47.84626,-54.09684
2018-09-19 17:10:00+00:00,303.1163,14.23,14.4,47.84626,-54.09684
2018-09-19 17:20:00+00:00,306.0647,14.25,14.48,47.84626,-54.09684
2018-09-19 17:30:00+00:00,305.7097,14.23,14.56,47.84626,-54.09684
2018-09-19 17:40:00+00:00,313.033,14.2,14.56,47.84626,-54.09684
2018-09-19 17:50:00+00:00,319.8014,14.2,14.48,47.84626,-54.09684
2018-09-19 18:00:00+00:00,315.0447,14.1,14.4,47.84626,-54.09684
2018-09-19 18:10:00+00:00,317.6513,14.1,14.4,47.84626,-54.09684
2018-09-19 18:20:00+00:00,325.6463,14.1,14.4,47.84626,-54.09684
2018-09-19 18:30:00+00:00,327.673,14.1,14.32,47.84626,-54.09684
2018-09-19 18:40:00+00:00,323.1663,14.15,14.32,47.84626,-54.09684
2018-09-19 18:50:00+00:00,327.433,14.12,14.32,47.84626,-54.09684
2018-09-19 19:00:00+00:00,333.598,14.14,14.24,47.84626,-54.09684
2018-09-19 19:10:00+00:00,331.0046,14.17,14.08,47.84626,-54.09684
2018-09-19 19:20:00+00:00,328.1447,14.0,14.16,47.84626,-54.09684
2018-09-19 19:30:00+00:00,332.9263,14.0,14.08,47.84626,-54.09684
2018-09-19 19:40:00+00:00,336.4213,14.1,14.08,47.84626,-54.09684
2018-09-19 19:50:00+00:00,337.483,14.14,14.08,47.84626,-54.09684
2018-09-19 20:00:00+00:00,337.3229,14.15,14.0,47.84626,-54.09684
2018-09-19 20:10:00+00:00,335.6945,14.12,13.92,47.84626,-54.09684
2018-09-19 20:20:00+00:00,334.5897,14.1,13.92,47.84626,-54.09684
2018-09-19 20:30:00+00:00,334.5096,14.1,13.92,47.84626,-54.09684
2018-09-19 20:40:00+00:00,334.1213,14.0,13.84,47.84626,-54.09684
2018-09-19 20:50:00+00:00,330.9912,14.0,13.84,47.84626,-54.09684
2018-09-19 21:00:00+00:00,327.7746,13.8,13.76,47.84626,-54.09684
2018-09-19 21:10:00+00:00,327.1595,13.8,13.6,47.84626,-54.09684
2018-09-19 21:20:00+00:00,322.1146,13.8,13.53,47.84626,-54.09684
2018-09-19 21:30:00+00:00,318.1813,13.8,13.53,47.84626,-54.09684
2018-09-19 21:40:00+00:00,316.4214,13.8,13.44,47.84626,-54.09684
2018-09-19 21:50:00+00:00,312.308,13.8,13.44,47.84626,-54.09684
2018-09-19 22:00:00+00:00,306.2596,13.8,13.37,47.84626,-54.09684
2018-09-19 22:10:00+00:00,302.4447,13.8,13.21,47.84626,-54.09684
2018-09-19 22:20:00+00:00,303.2146,13.86,13.21,47.84626,-54.09684
2018-09-19 22:30:00+00:00,300.4864,13.89,13.21,47.84626,-54.09684
2018-09-19 22:40:00+00:00,294.8313,13.9,13.21,47.84626,-54.09684
2018-09-19 22:50:00+00:00,290.753,13.9,13.21,47.84626,-54.09684
2018-09-19 23:00:00+00:00,287.8547,13.85,13.13,47.84626,-54.09684
2018-09-19 23:10:00+00:00,280.6564,13.8,13.05,47.84626,-54.09684
2018-09-19 23:20:00+00:00,276.7112,13.88,13.13,47.84626,-54.09684
2018-09-19 23:30:00+00:00,277.0266,13.99,13.13,47.84626,-54.09684
2018-09-19 23:40:00+00:00,271.4114,14.0,13.13,47.84626,-54.09684
2018-09-19 23:50:00+00:00,262.1647,13.9,13.13,47.84626,-54.09684
